Weather History for KDUJ - May, 2013

Change the Weather History Date:

Sunday, May 12, 2013

  Actual Average Record
Temperature  
Mean Temperature 42 °F 55 °F  
Max Temperature 49 °F 66 °F 83 °F (1991)
Min Temperature 35 °F 44 °F 30 °F (1996)
Degree Days  
Heating Degree Days 23 10  
Month to date heating degree days 83 138  
Since 1 July heating degree days 6372 6651  
Cooling Degree Days 0 0  
Month to date cooling degree days 0 0  
Year to date cooling degree days 1 4  
Moisture  
Dew Point 35 °F    
Average Humidity 64    
Maximum Humidity 86    
Minimum Humidity 42    
Precipitation  
Precipitation 0.10 in 0.14 in 1.71 in (2002)
Month to date precipitation 0.76 1.54  
Sea Level Pressure  
Sea Level Pressure 29.86 in    
Wind  
Wind Speed 13 mph (West)    
Max Wind Speed 31 mph    
Max Gust Speed 38 mph    
Visibility 9 miles    
Events Rain , Snow    
T = Trace of Precipitation, MM = Missing Value Source: NWS Daily Summary

Daily Weather History Graph

Daily Weather History Graph

Search for Another Location

Airport or City:

Trip Planner

Search our weather history database for the weather conditions in past years. The results will help you decide how hot, cold, wet, or windy it might be!

Date:

Astronomy

May. 12, 2013 Rise Set
Actual Time 6:00 AM EDT 8:24 PM EDT
Civil Twilight 5:29 AM EDT 8:55 PM EDT
Nautical Twilight 4:50 AM EDT 9:34 PM EDT
Astronomical Twilight 4:07 AM EDT 10:17 PM EDT
Moon 7:53 AM EDT (5/12) 10:50 PM EDT (5/12)
Length of Visible Light 15h 26m
Length of Day
14h 24m
Waxing Crescent, 6% of the Moon is Illuminated
May 12
Waxing Crescent
May 18
First Quarter
May 25
Full
May 31
Last Quarter
Jun 8
New

Hourly Weather History & Observations

Time (EDT) Temp. Windchill Dew Point Humidity Pressure Visibility Wind Dir Wind Speed Gust Speed Precip Events Conditions
12:56 AM 48.9 °F - 45.0 °F 86% 29.79 in 8.0 mi SW 6.9 mph - N/A   Overcast
1:32 AM 48.2 °F - 44.6 °F 87% 29.78 in 9.0 mi SW 8.1 mph - 0.01 in   Overcast
1:47 AM 48.2 °F - 44.6 °F 87% 29.77 in 10.0 mi WSW 8.1 mph - 0.01 in   Overcast
1:56 AM 48.9 °F - 45.0 °F 86% 29.78 in 10.0 mi WSW 9.2 mph - 0.01 in   Overcast
2:11 AM 48.2 °F - 44.6 °F 87% 29.77 in 4.0 mi WSW 11.5 mph - 0.01 in Rain Light Rain
2:14 AM 48.2 °F - 44.6 °F 87% 29.76 in 4.0 mi WSW 9.2 mph - 0.01 in Rain Light Rain
2:16 AM 48.2 °F - 44.6 °F 87% 29.76 in 4.0 mi WSW 10.4 mph - 0.01 in Rain Light Rain
2:24 AM 48.2 °F - 44.6 °F 87% 29.77 in 5.0 mi WSW 20.7 mph 26.5 mph 0.02 in Rain Light Rain
2:56 AM 45.0 °F 37.6 °F 41.0 °F 86% 29.80 in 10.0 mi WNW 17.3 mph 26.5 mph 0.03 in Rain Light Rain
3:07 AM 44.6 °F 39.7 °F 39.2 °F 81% 29.79 in 8.0 mi WNW 9.2 mph - 0.00 in Rain Light Rain
3:16 AM 44.6 °F 40.2 °F 39.2 °F 81% 29.79 in 10.0 mi WNW 8.1 mph - 0.00 in   Overcast
3:29 AM 42.8 °F 35.1 °F 37.4 °F 81% 29.79 in 10.0 mi WNW 16.1 mph 21.9 mph 0.00 in   Overcast
3:39 AM 42.8 °F 35.4 °F 37.4 °F 81% 29.79 in 10.0 mi WNW 15.0 mph 21.9 mph 0.00 in   Overcast
3:56 AM 42.1 °F 35.2 °F 37.0 °F 82% 29.81 in 10.0 mi WNW 12.7 mph 20.7 mph 0.00 in   Overcast
4:56 AM 39.0 °F 31.4 °F 33.1 °F 79% 29.83 in 10.0 mi WNW 12.7 mph - N/A   Overcast
5:56 AM 37.0 °F 29.8 °F 30.0 °F 76% 29.86 in 10.0 mi West 10.4 mph - N/A   Clear
6:56 AM 36.0 °F 30.3 °F 30.0 °F 79% 29.87 in 10.0 mi West 6.9 mph - N/A   Partly Cloudy
7:56 AM 37.9 °F 30.9 °F 30.9 °F 76% 29.88 in 10.0 mi West 10.4 mph - N/A   Scattered Clouds
8:56 AM 39.9 °F 32.1 °F 32.0 °F 73% 29.88 in 10.0 mi West 13.8 mph 19.6 mph N/A   Overcast
9:29 AM 42.8 °F 35.1 °F 32.0 °F 66% 29.86 in 10.0 mi West 16.1 mph - N/A   Mostly Cloudy
9:46 AM 42.8 °F 35.4 °F 32.0 °F 66% 29.86 in 10.0 mi WSW 15.0 mph 20.7 mph N/A   Mostly Cloudy
9:56 AM 43.0 °F 36.4 °F 32.0 °F 65% 29.86 in 10.0 mi WSW 12.7 mph - N/A   Scattered Clouds
10:56 AM 43.0 °F 36.0 °F 28.9 °F 58% 29.87 in 10.0 mi West 13.8 mph - N/A   Overcast
11:56 AM 46.0 °F 40.2 °F 30.0 °F 54% 29.86 in 10.0 mi West 12.7 mph 24.2 mph N/A   Overcast
12:56 PM 48.0 °F - 26.1 °F 42% 29.86 in 10.0 mi WSW 17.3 mph 29.9 mph N/A   Overcast
1:56 PM 39.9 °F 32.1 °F 34.0 °F 79% 29.89 in 4.0 mi WNW 13.8 mph 32.2 mph 0.01 in Rain Light Rain
2:56 PM 48.0 °F - 28.0 °F 46% 29.88 in 10.0 mi West 18.4 mph 31.1 mph 0.01 in   Mostly Cloudy
3:56 PM 45.0 °F 38.9 °F 33.1 °F 63% 29.90 in 10.0 mi West 12.7 mph 23.0 mph N/A   Mostly Cloudy
4:56 PM 45.0 °F 36.9 °F 30.0 °F 56% 29.91 in 10.0 mi West 20.7 mph 27.6 mph 0.01 in   Mostly Cloudy
5:56 PM 45.0 °F 39.7 °F 27.0 °F 49% 29.93 in 10.0 mi West 10.4 mph 21.9 mph N/A   Overcast
6:56 PM 44.1 °F 39.0 °F 28.9 °F 55% 29.94 in 10.0 mi NW 9.2 mph - N/A   Overcast
7:56 PM 41.0 °F 35.2 °F 30.0 °F 65% 29.96 in 10.0 mi West 9.2 mph - N/A   Mostly Cloudy
8:56 PM 41.0 °F 35.2 °F 25.0 °F 53% 29.96 in 10.0 mi West 9.2 mph - N/A   Partly Cloudy
9:56 PM 41.0 °F 32.8 °F 28.0 °F 60% 29.99 in 10.0 mi West 16.1 mph 27.6 mph N/A   Overcast
10:56 PM 39.0 °F 30.6 °F 30.9 °F 73% 30.00 in 10.0 mi West 15.0 mph 27.6 mph 0.00 in Rain Light Rain
11:56 PM 37.9 °F 32.7 °F 32.0 °F 79% 30.02 in 6.0 mi West 6.9 mph - 0.00 in Snow Light Snow